Regional Weather Roundup
Issued by NWS

Home | Current Version | Previous Version | Text Only | Print | Product List | Glossary Off
Versions: 1 2 3 4 5 6 7 8 9 10 11 12 13 14 15 16 17 18 19 20 21 22 23 24 25 26 27 28 29 30 31 32 33 34 35 36 37 38 39 40 41 42 43 44 45 46 47 48 49 50

222
ASUS43 KDMX 292106
RWRIA

WEATHER ROUNDUP FOR IOWA
NATIONAL WEATHER SERVICE DES MOINES IA
400 PM CDT MON MAY 29 2017

NOTE: "FAIR" INDICATES FEW OR NO CLOUDS BELOW 12,000 FEET WITH NO
SIGNIFICANT WEATHER AND/OR OBSTRUCTIONS TO VISIBILITY.

* - THESE STATIONS ARE NOT NWS STATIONS...THUS NOT UNDER NWS
QUALITY CONTROL.  THEY ALSO DO NOT REPORT WEATHER SUCH
AS PRECIPITATION OR FOG.

IAZ001>003-012>014-020>022-031>034-043>046-292200-
   NORTHWEST IOWA

CITY           SKY/WX    TMP DP  RH WIND       PRES   REMARKS
CARROLL *      MOSUNNY   72  43  35 NW18G32   29.95S
CHEROKEE *     CLOUDY    65  43  44 NW16G25   29.97S
DENISON *      SUNNY     72  41  33 NW21G29   29.99S
LE MARS *      MOSUNNY   68  43  40 NW15G26   29.99F
ORANGE CITY *  MOSUNNY   66  45  45 NW23G29   29.98S
SHELDON *      PTSUNNY   66  41  39 NW21G29   29.95S
SIOUX CITY     PTSUNNY   68  44  42 NW17G26   29.98S
SPENCER        CLOUDY    66  44  45 NW20G30   29.95S
STORM LAKE *     N/A     68  41  37 NW23G30   29.97S
$$

IAZ055>058-069>071-079>083-090>094-292200-
   SOUTHWEST IOWA

CITY           SKY/WX    TMP DP  RH WIND       PRES   REMARKS
ATLANTIC *     MOSUNNY   72  39  30 NW22      29.98S
AUDUBON *      MOSUNNY   73  39  29 W7G22     29.98F
CLARINDA *     SUNNY     77  37  24 NW17G33   30.00S
COUNCIL BLFS * SUNNY     73  37  27 NW20G28   29.99F
CRESTON *      MOSUNNY   73  39  29 W26G35    29.98S
HARLAN  *      MOSUNNY   73  39  29 W21G28    30.01S
LAMONI         MOSUNNY   76  42  29 W28       29.96F
RED OAK *      MOSUNNY   75  37  25 NW18G25   29.98F
SHENANDOAH *   SUNNY     75  39  27 NW20      29.99F
$$

IAZ047>049-059>061-072>074-084-292200-
   CENTRAL IOWA

CITY           SKY/WX    TMP DP  RH WIND       PRES   REMARKS
AMES           PTSUNNY   70  42  36 NW22G33   29.92S
ANKENY *       SUNNY     73  41  31 W23G30    29.93F
BOONE *        MOSUNNY   70  41  35 W23G30    29.92S
CHARITON *     SUNNY     73  41  31 NW20G33   29.94S
DES MOINES     MOSUNNY   74  39  28 W25       29.92F
GRINNELL*      MOSUNNY   73  40  30 W20G26    29.92F
KNOXVILLE *    SUNNY     73  39  29 NW23G29   29.92S
MARSHALLTOWN   PTSUNNY   72  44  36 W20G26    29.89F
NEWTON *       MOSUNNY   73  41  31 NW14G26   29.91S
PELLA *        SUNNY     75  39  27 W18G24    29.93S
PERRY *          N/A     73  34  24 W20G31    29.94F
$$

IAZ004>006-015-016-023>025-035-036-292200-
   NORTH CENTRAL IOWA

CITY           SKY/WX    TMP DP  RH WIND       PRES   REMARKS
ALGONA *       CLOUDY    66  43  42 NW18G26   29.93S
CLARION *      CLOUDY    68  43  40 NW24G32   29.92S
ESTHERVILLE    CLOUDY    64  44  48 NW23      29.93S
FORT DODGE *   CLOUDY    68  43  40 NW12G22   29.94F
MASON CITY     PTSUNNY   68  43  40 NW24G36   29.91S
FOREST CITY *  PTSUNNY   64  36  34 NW17G26   29.91S
WEBSTER CITY * PTSUNNY   72  41  33 W24G36    29.91S
IOWA FALLS *   CLOUDY    70  42  35 W26G33    29.92S
$$

IAZ007>011-017>019-026>030-037>042-050>054-066-292200-
   NORTHEAST IOWA

CITY           SKY/WX    TMP DP  RH WIND       PRES   REMARKS
CEDAR RAPIDS   MOSUNNY   71  45  39 NW21G29   29.87F
CHARLES CITY * PTSUNNY   68  41  37 NW25      29.88S
CLINTON *      MOSUNNY   74  45  35 W25G32    29.85F
DECORAH *      MOSUNNY   68  45  42 W9G21     29.84S
DUBUQUE        PTSUNNY   70  45  40 W20G29    29.86F
MONTICELLO *   MOSUNNY   72  43  35 W20G28    29.86S
OELWEIN *      PTSUNNY   70  43  37 W21G29    29.87S
WATERLOO       PTSUNNY   72  44  36 W15G31    29.87S
$$

IAZ064-065-067-068-078-292200-
   EAST CENTRAL IOWA

CITY           SKY/WX    TMP DP  RH WIND       PRES   REMARKS
DAVENPORT      MOSUNNY   75  42  30 W25G36    29.87F
IOWA CITY      MOSUNNY   75  43  31 W23G31    29.89F
MT. PLEASANT * MOSUNNY   76  38  25 W17G25    29.90F
MUSCATINE *    SUNNY     75  43  31 W24G32    29.89S
QUAD CITIES    MOSUNNY   76  43  30 W20G33    29.87F
$$

IAZ062-063-075>077-085>089-095>099-292200-
   SOUTHEAST IOWA

CITY           SKY/WX    TMP DP  RH WIND       PRES   REMARKS
BURLINGTON     MOSUNNY   77  43  29 NW12G23   29.90S
FAIRFIELD *    PTSUNNY   75  41  29 W16G29    29.90F
FORT MADISON * SUNNY     79  39  24 W16G24    29.91S
KEOKUK *       SUNNY     77  41  27 NW15G24   29.91S
OSKALOOSA *      N/A     77  36  23 NW28G35   29.92S
CENTERVILLE *    N/A     77  39  25 W21G30    29.95S
OTTUMWA        MOSUNNY   75  40  28 NW17G29   29.91F
WASHINGTON *   MOSUNNY   77  41  27 W23G31    29.91F
$$

ABBREVIATIONS USED IN REMARKS
   TC - TEMPERATURES IN CELSIUS
  WCI - WIND CHILL INDEX
   HX - HEAT INDEX
  VSB - VISIBILITY
$$





USA.gov is the U.S. government's official web portal to all federal, state and local government web resources and services.